EW6103 Weather Reports


Display with metric or nautical units.
time (UTC)temp
F
wind
direction
speed
MPH
gust
MPH
rain 1hr
in
rain 24hr
in
rain mn
in
humidity
%
barometer
mb
20260503225007 62 90 3.0 6.0 0.00 0.00 0.00 49 1013.0
20260503223007 62 90 3.0 6.0 0.00 0.00 0.00 49 1013.0
20260503221009 62 90 3.0 6.0 0.00 0.00 0.00 49 1013.0
20260503220014 62 90 3.0 6.0 0.00 0.00 0.00 49 1013.0
20260503215007 62 90 3.0 6.0 0.00 0.00 0.00 49 1013.0
20260503214008 62 90 3.0 6.0 0.00 0.00 0.00 49 1013.0
20260503213007 62 90 3.0 6.0 0.00 0.00 0.00 49 1013.0
20260503212008 62 90 3.0 6.0 0.00 0.00 0.00 49 1013.0
20260503210012 62 90 3.0 6.0 0.00 0.00 0.00 49 1013.0
20260503205009 62 90 3.0 6.0 0.00 0.00 0.00 49 1013.0
20260503204009 61 90 3.0 6.0 0.00 0.00 0.00 49 1013.0
20260503203011 61 90 2.0 4.0 0.00 0.00 0.00 50 1013.1
20260503202010 61 135 2.0 4.0 0.00 0.00 0.00 48 1013.1
20260503201009 62 135 3.0 6.0 0.00 0.00 0.00 48 1012.9
20260503200012 62 90 3.0 4.0 0.00 0.00 0.00 46 1013.2
20260503195009 63 135 3.0 4.0 0.00 0.00 0.00 46 1013.1
20260503194012 63 135 4.0 6.0 0.00 0.00 0.00 45 1013.0
20260503193010 63 135 4.0 6.0 0.00 0.00 0.00 46 1013.0
20260503192009 62 0 2.0 4.0 0.00 0.00 0.00 46 1012.9
20260503191008 62 135 2.0 4.0 0.00 0.00 0.00 47 1013.0
20260503190013 62 90 1.0 4.0 0.00 0.00 0.00 47 1012.9
20260503185009 63 135 1.0 3.0 0.00 0.00 0.00 45 1012.9
20260503184006 65 90 1.0 4.0 0.00 0.00 0.00 43 1012.7
20260503183010 66 180 2.0 4.0 0.00 0.00 0.00 41 1012.5
20260503182009 68 135 3.0 5.0 0.00 0.00 0.00 37 1012.3
20260503181010 69 180 4.0 7.0 0.00 0.00 0.00 36 1012.2
20260503175009 70 180 3.0 9.0 0.00 0.00 0.00 36 1012.1
20260503174009 71 180 4.0 7.0 0.00 0.00 0.00 35 1011.9
20260503173009 72 135 4.0 9.0 0.00 0.00 0.00 34 1012.0
20260503172008 73 180 4.0 9.0 0.00 0.00 0.00 33 1011.9
20260503151008 79 135 5.0 11.0 0.00 0.00 0.00 28 1011.9
20260503131008 80 90 4.0 11.0 0.00 0.00 0.00 29 1013.1
20260503081008 69 180 4.0 9.0 0.00 0.00 0.00 41 1016.8
20260503071009 65 180 4.0 7.0 0.00 0.00 0.00 41 1017.1
20260503055009 57 45 2.0 4.0 0.00 0.00 0.00 60 1017.5
20260503054009 55 45 1.0 2.0 0.00 0.00 0.00 64 1017.5
20260503053010 53 45 1.0 2.0 0.00 0.00 0.00 70 1017.5
20260503052009 52 45 0.0 1.0 0.00 0.00 0.00 72 1017.6
20260503051008 51 45 1.0 2.0 0.00 0.00 0.00 71 1017.7
20260503050012 48 0 1.0 2.0 0.00 0.00 0.00 77 1017.8
20260503045008 47 270 1.0 2.0 0.00 0.00 0.00 77 1017.8
20260503044009 44 45 1.0 2.0 0.00 0.00 0.00 87 1018.0
20260503043010 42 45 0.0 1.0 0.00 0.00 0.00 84 1018.0
20260503042009 41 45 0.0 1.0 0.00 0.00 0.00 83 1018.0
20260503041008 41 45 0.0 1.0 0.00 0.00 0.00 82 1018.0
20260503040013 41 45 0.0 2.0 0.00 0.00 0.00 81 1017.7
20260503035008 40 0 1.0 3.0 0.00 0.00 0.00 82 1017.8
20260503034008 39 45 0.0 0.0 0.00 0.00 0.00 84 1017.9
20260503033009 39 45 0.0 0.0 0.00 0.00 0.00 84 1017.7
20260503031009 40 45 0.0 0.0 0.00 0.00 0.00 83 1017.9
20260503030010 40 45 0.0 0.0 0.00 0.00 0.00 82 1017.8
20260503025006 41 45 0.0 0.0 0.00 0.00 0.00 82 1017.9
20260503024008 41 45 0.0 0.0 0.00 0.00 0.00 81 1017.8
20260503023008 41 45 0.0 1.0 0.00 0.00 0.00 81 1017.9
20260503022008 42 45 0.0 1.0 0.00 0.00 0.00 80 1017.9
20260503021008 42 45 0.0 1.0 0.00 0.00 0.00 80 1017.8
20260503020013 42 45 0.0 1.0 0.00 0.00 0.00 80 1018.0
20260503015007 42 0 0.0 2.0 0.00 0.00 0.00 81 1018.0
20260503014008 42 0 0.0 1.0 0.00 0.00 0.00 81 1018.0
20260503013010 41 0 0.0 1.0 0.00 0.00 0.00 82 1018.2
20260503012009 41 0 0.0 0.0 0.00 0.00 0.00 81 1017.9
20260503011009 42 0 0.0 0.0 0.00 0.00 0.00 82 1018.0
20260503010015 42 0 0.0 0.0 0.00 0.00 0.00 81 1018.0
20260503005008 42 0 0.0 0.0 0.00 0.00 0.00 80 1018.0
20260503003010 43 0 0.0 1.0 0.00 0.00 0.00 79 1018.0
20260503002008 43 0 0.0 1.0 0.00 0.00 0.00 78 1018.1
20260503001008 44 0 0.0 1.0 0.00 0.00 0.00 78 1018.2
20260502235009 43 45 0.0 0.0 0.00 0.00 0.00 78 1018.4
20260502234009 44 45 0.0 0.0 0.00 0.00 0.00 79 1018.3
20260502233010 44 45 0.0 0.0 0.00 0.00 0.00 78 1018.5
20260502232009 44 45 0.0 0.0 0.00 0.00 0.00 78 1018.5
20260502231008 45 45 0.0 0.0 0.00 0.00 0.00 77 1018.4